Etusivu
METAR-TAF:

METAR-TAF

Lentoasemat :

Sveg, Ruotsi

Leveyspiiri: 62-02-52N, Pituuspiiri: 014-25-22E, korkeus merenpinnasta: 359 m

Tämänhetkinen sää

Tämä raportti tehtiin 23 minuuttia sitten, kello 15.20 UTC
Tuuli 5 kn idästä/kaakosta, vaihdellen idän ja etelän välillä
Lämpötila 8°C
Kosteus 81%
Ilmanpaine 1025 hPa
Näkyvyys 10 km tai enemmän

METAR: ESND 211520Z AUTO 12005KT 090V170 9999 OVC017/// 08/05 Q1025

Aika: 17:43 (15:43 UTC)


TAF: puuttuu

Säähavainnot ja -ennusteet yli 4000 lentoasemalta (METAR- ja TAF-raportit).

Käytössä olevat sääasemat on merkitty karttaan keltaisilla ja punaisilla pisteillä.

Aseta hiiri pisteen päälle nähdäksesi sääaseman nimen.

Klikkaa sitten nähdäksesi säähavainnot ja -ennusteet.

Kartan vaihtaminen: klikkaa mustalla rastilla varustettuja vihreitä pisteitä, niin voit zoomata sisään; viivalla varustettua vihreää pistettä, niin voit zoomata ulos tai vihreitä nuolia, niin pääset viereisille kartoille.


METAR-TAF: